sat.trackr.live / text

‹ back to catalog

STARLINK-35859

NORAD 67185 · 2025-303Y

PAYLOAD ACTIVE UNKNOWN

§ Identity

Operator
Country
US
Launch date
2025-12-17
Launch site
AFETR
Launch vehicle
Mass (kg)
RCS (m²)

Purposes: comms

External: N2YO · Heavens-Above · Gunter

§ Orbital elements

Epoch: 2026-09-19T09:27:35.978688Z

Period
94.26 min
Inclination
43.0017°
Eccentricity
0.0001044
Mean motion
15.27609711 rev/d
Perigee alt
482.2 km
Apogee alt
483.7 km
Semi-major
6,861.1 km
B*
3.9710e-4
RAAN
296.4330°
Arg perigee
275.8641°
Mean anomaly
84.2092°
Rev number
4,236

§ Raw data

STARLINK-358591 67185U 25303Y   26262.39416642  .00010691  00000+0  39710-3 0  99922 67185  43.0017 296.4330 0001044 275.8641  84.2092 15.27609711 42362

JSON: /api/v1/satellites/67185 · /tle

For live sub-satellite position, see the globe view (requires WebGL).

§ Visibility from observer

Set your observer location to see the next 7 days of passes ≥ 10°. The values pass through the URL so the page stays shareable.

No JS? Fill the form by hand. The geolocation button needs JavaScript.